GW3840 Weather Reports


time (UTC)temp
C
wind
direction
speed
KPH
gust
KPH
rain 1hr
cm
rain 24hr
cm
rain mn
cm
humidity
%
barometer
mb
20260901054925 19 151 0.0 0.0 0.00 0.00 0.00 80 1015.4
20260901054422 20 193 0.0 0.0 0.00 0.00 0.00 78 1015.4
20260901053918 20 176 0.0 0.0 0.00 0.00 0.00 77 1015.3
20260901053413 20 223 1.6 4.8 0.00 0.00 0.00 75 1015.2
20260901052908 20 207 1.6 3.2 0.00 0.00 0.00 76 1015.4
20260901052403 20 130 0.0 3.2 0.00 0.00 0.00 76 1015.4
20260901051902 20 184 0.0 1.6 0.00 0.00 0.00 75 1015.2
20260901051357 20 187 1.6 3.2 0.00 0.00 0.00 77 1015.3
20260901050852 18 139 0.0 3.2 0.00 0.00 0.00 81 1015.3
20260901050348 18 176 0.0 0.0 0.00 0.00 0.00 82 1015.3
20260901045843 19 176 0.0 0.0 0.00 0.00 0.00 80 1015.4
20260901045342 19 176 0.0 0.0 0.00 0.00 0.00 80 1015.3
20260901044838 19 157 0.0 0.0 0.00 0.00 0.00 80 1015.4
20260901044334 20 171 0.0 0.0 0.00 0.00 0.00 79 1015.2
20260901043830 20 182 0.0 0.0 0.00 0.00 0.00 77 1015.4
20260901043326 20 193 0.0 1.6 0.00 0.00 0.00 76 1015.3
20260901042824 20 181 0.0 1.6 0.00 0.00 0.00 76 1015.3
20260901042319 20 183 0.0 1.6 0.00 0.00 0.00 77 1015.3
20260901041815 20 175 0.0 0.0 0.00 0.00 0.00 77 1015.0
20260901041310 20 230 1.6 1.6 0.00 0.00 0.00 78 1015.1
20260901040804 19 163 0.0 1.6 0.00 0.00 0.00 82 1015.2
20260901040304 19 121 0.0 1.6 0.00 0.00 0.00 84 1015.3
20260901035803 18 170 0.0 0.0 0.00 0.00 0.00 85 1015.0
20260901035305 18 182 0.0 0.0 0.00 0.00 0.00 86 1015.0
20260901034800 18 185 0.0 0.0 0.00 0.00 0.00 88 1015.2
20260901034255 18 186 0.0 0.0 0.00 0.00 0.00 88 1015.2
20260901033749 18 180 0.0 0.0 0.00 0.00 0.00 88 1015.1
20260901033243 18 187 0.0 0.0 0.00 0.00 0.00 88 1015.0
20260901032742 18 190 0.0 0.0 0.00 0.00 0.00 88 1015.4
20260901032236 18 191 0.0 0.0 0.00 0.00 0.00 87 1015.2
20260901031726 18 191 0.0 0.0 0.00 0.00 0.00 87 1015.2
20260901031222 18 190 0.0 0.0 0.00 0.00 0.00 86 1015.3
20260901030721 18 197 0.0 0.0 0.00 0.00 0.00 85 1015.3
20260901030216 18 197 0.0 0.0 0.00 0.00 0.00 84 1015.1
20260901025711 18 197 0.0 0.0 0.00 0.00 0.00 83 1015.1
20260901025206 18 197 0.0 0.0 0.00 0.00 0.00 83 1015.0
20260901024705 18 199 0.0 0.0 0.00 0.00 0.00 83 1015.1
20260901024204 19 199 0.0 0.0 0.00 0.00 0.00 82 1014.7
20260901023702 19 207 0.0 0.0 0.00 0.00 0.00 80 1014.9
20260901023158 19 207 0.0 0.0 0.00 0.00 0.00 80 1014.9
20260901022653 19 207 0.0 0.0 0.00 0.00 0.00 80 1014.7
20260901022148 20 206 0.0 0.0 0.00 0.00 0.00 78 1014.7
20260901021643 20 207 0.0 0.0 0.00 0.00 0.00 79 1014.7
20260901021139 20 207 0.0 0.0 0.00 0.00 0.00 78 1014.6
20260901020635 20 195 0.0 0.0 0.00 0.00 0.00 79 1014.7
20260901020130 20 208 0.0 0.0 0.00 0.00 0.00 79 1014.6
20260901015625 20 192 0.0 0.0 0.00 0.00 0.00 79 1014.6
20260901015125 20 195 0.0 0.0 0.00 0.00 0.00 79 1014.5
20260901014619 20 178 0.0 0.0 0.00 0.00 0.00 78 1014.5
20260901014116 20 178 0.0 0.0 0.00 0.00 0.00 76 1014.5
20260901013612 20 179 0.0 0.0 0.00 0.00 0.00 75 1014.5
20260901013108 21 178 0.0 0.0 0.00 0.00 0.00 75 1014.3
20260901012607 21 179 0.0 0.0 0.00 0.00 0.00 73 1014.4
20260901012102 21 87 0.0 0.0 0.00 0.00 0.00 72 1014.2
20260901011559 22 87 0.0 0.0 0.00 0.00 0.00 69 1014.1
20260901011056 22 217 0.0 0.0 0.00 0.00 0.00 67 1014.2
20260901010552 23 104 0.0 0.0 0.00 0.00 0.00 66 1014.3
20260901010051 23 110 0.0 0.0 0.00 0.00 0.00 64 1014.4
20260901005546 24 233 1.6 3.2 0.00 0.00 0.00 62 1014.4
20260901005041 25 240 1.6 1.6 0.00 0.00 0.00 61 1014.4
20260901004540 25 215 1.6 4.8 0.00 0.00 0.00 61 1014.3
20260901004035 25 234 1.6 4.8 0.00 0.00 0.00 60 1014.3
20260901003531 26 229 3.2 4.8 0.00 0.00 0.00 58 1014.1
20260901003029 26 230 1.6 3.2 0.00 0.00 0.00 56 1014.3
20260901002528 26 183 1.6 4.8 0.00 0.00 0.00 55 1014.3
20260901002024 26 247 6.4 6.4 0.00 0.00 0.00 53 1014.3
20260901001519 27 233 1.6 9.7 0.00 0.00 0.00 51 1014.2
20260901001014 27 211 3.2 9.7 0.00 0.00 0.00 52 1014.1
20260901000513 27 193 0.0 3.2 0.00 0.00 0.00 52 1014.4
20260901000009 27 227 4.8 4.8 0.00 0.00 0.00 52 1014.1
20260831235503 27 252 4.8 6.4 0.00 0.00 0.00 49 1014.3
20260831234958 27 277 4.8 9.7 0.00 0.00 0.00 51 1014.3
20260831234453 27 162 3.2 4.8 0.00 0.00 0.00 47 1013.9
20260831233949 27 272 4.8 4.8 0.00 0.00 0.00 46 1014.2
20260831233444 28 251 4.8 6.4 0.00 0.00 0.00 45 1014.3
20260831232939 28 184 3.2 6.4 0.00 0.00 0.00 46 1014.2
20260831232435 28 235 3.2 6.4 0.00 0.00 0.00 47 1014.2
20260831231931 28 225 3.2 11.3 0.00 0.00 0.00 47 1014.1
20260831231427 28 173 3.2 6.4 0.00 0.00 0.00 45 1014.2
20260831230923 28 246 3.2 6.4 0.00 0.00 0.00 43 1014.2
20260831230422 28 232 6.4 9.7 0.00 0.00 0.00 43 1014.2
20260831225917 28 228 6.4 9.7 0.00 0.00 0.00 43 1014.2
20260831225414 28 215 1.6 9.7 0.00 0.00 0.00 43 1014.3
20260831224908 28 269 4.8 9.7 0.00 0.00 0.00 43 1014.3
20260831224408 29 238 8.0 11.3 0.00 0.00 0.00 42 1014.2
20260831223903 29 247 6.4 9.7 0.00 0.00 0.00 41 1014.2
20260831223358 30 248 4.8 9.7 0.00 0.00 0.00 40 1014.2
20260831222855 28 229 1.6 9.7 0.00 0.00 0.00 41 1014.1
20260831222350 29 266 4.8 4.8 0.00 0.00 0.00 40 1014.1
20260831221845 29 206 4.8 9.7 0.00 0.00 0.00 41 1014.1
20260831221341 29 231 3.2 6.4 0.00 0.00 0.00 39 1014.0
20260831220836 30 236 3.2 6.4 0.00 0.00 0.00 39 1014.1
20260831220331 28 232 4.8 9.7 0.00 0.00 0.00 41 1014.1
20260831215826 29 247 6.4 12.9 0.00 0.00 0.00 39 1014.4
20260831215322 29 265 4.8 6.4 0.00 0.00 0.00 40 1014.3
20260831214818 29 255 6.4 9.7 0.00 0.00 0.00 41 1014.2
20260831214316 29 253 4.8 6.4 0.00 0.00 0.00 41 1014.2
20260831213811 29 260 4.8 12.9 0.00 0.00 0.00 41 1014.4
20260831213307 28 269 6.4 9.7 0.00 0.00 0.00 41 1014.4
20260831212802 29 213 3.2 6.4 0.00 0.00 0.00 38 1014.2
20260831212259 30 213 9.7 12.9 0.00 0.00 0.00 38 1014.2
20260831211757 29 243 4.8 11.3 0.00 0.00 0.00 42 1014.3
20260831211252 29 227 8.0 11.3 0.00 0.00 0.00 42 1014.2
20260831210747 29 135 6.4 9.7 0.00 0.00 0.00 42 1014.3
20260831210243 30 226 6.4 6.4 0.00 0.00 0.00 42 1014.3
20260831205742 30 308 3.2 4.8 0.00 0.00 0.00 42 1014.3
20260831205238 30 262 4.8 12.9 0.00 0.00 0.00 40 1014.1
20260831204738 29 261 9.7 12.9 0.00 0.00 0.00 40 1014.2
20260831204237 29 216 4.8 9.7 0.00 0.00 0.00 39 1014.3
20260831203736 30 251 8.0 11.3 0.00 0.00 0.00 40 1014.2
20260831203231 29 214 6.4 11.3 0.00 0.00 0.00 41 1014.3
20260831202729 29 296 9.7 12.9 0.00 0.00 0.00 38 1014.4
20260831202225 29 350 4.8 9.7 0.00 0.00 0.00 38 1014.3
20260831201724 29 260 8.0 20.9 0.00 0.00 0.00 36 1014.3
20260831201219 29 275 4.8 9.7 0.00 0.00 0.00 39 1014.2
20260831200714 30 248 4.8 11.3 0.00 0.00 0.00 40 1014.2
20260831200209 30 317 4.8 9.7 0.00 0.00 0.00 40 1014.1
20260831195704 29 273 6.4 12.9 0.00 0.00 0.00 38 1014.2
20260831195159 29 276 6.4 9.7 0.00 0.00 0.00 39 1014.3
20260831194654 29 290 8.0 9.7 0.00 0.00 0.00 40 1014.3
20260831194149 28 317 4.8 16.1 0.00 0.00 0.00 40 1014.2
20260831193643 30 218 4.8 6.4 0.00 0.00 0.00 40 1014.4
20260831193139 28 208 6.4 11.3 0.00 0.00 0.00 43 1014.2
20260831192633 28 322 6.4 9.7 0.00 0.00 0.00 42 1014.1
20260831192129 28 114 1.6 6.4 0.00 0.00 0.00 42 1014.0
20260831191625 29 23 3.2 4.8 0.00 0.00 0.00 40 1014.0
20260831191120 28 210 4.8 6.4 0.00 0.00 0.00 39 1014.0
20260831190615 28 299 4.8 9.7 0.00 0.00 0.00 42 1013.9
20260831190114 28 284 4.8 11.3 0.00 0.00 0.00 45 1013.9
20260831185610 28 245 8.0 12.9 0.00 0.00 0.00 43 1014.1
20260831185106 27 311 4.8 11.3 0.00 0.00 0.00 47 1014.1
20260831184600 27 238 3.2 9.7 0.00 0.00 0.00 45 1014.1
20260831184055 27 273 3.2 11.3 0.00 0.00 0.00 45 1014.0
20260831183554 27 310 6.4 9.7 0.00 0.00 0.00 45 1014.1
20260831183048 27 7 6.4 12.9 0.00 0.00 0.00 42 1014.2
20260831182542 27 309 4.8 12.9 0.00 0.00 0.00 48 1014.3
20260831182038 27 318 6.4 9.7 0.00 0.00 0.00 45 1014.1
20260831181533 27 273 9.7 14.5 0.00 0.00 0.00 44 1014.2
20260831181032 27 221 3.2 11.3 0.00 0.00 0.00 45 1014.2
20260831180527 27 342 4.8 12.9 0.00 0.00 0.00 47 1014.3
20260831180022 26 12 4.8 11.3 0.00 0.00 0.00 48 1014.2
20260831175517 27 335 6.4 11.3 0.00 0.00 0.00 48 1014.2
20260831175014 27 330 4.8 12.9 0.00 0.00 0.00 49 1014.3
20260831174508 26 306 11.3 12.9 0.00 0.00 0.00 48 1014.4
20260831174003 26 14 3.2 9.7 0.00 0.00 0.00 52 1014.4
20260831173501 26 331 3.2 12.9 0.00 0.00 0.00 53 1014.4
20260831172957 25 315 8.0 12.9 0.00 0.00 0.00 54 1014.2
20260831172453 26 279 8.0 12.9 0.00 0.00 0.00 52 1014.3
20260831171948 26 335 3.2 9.7 0.00 0.00 0.00 54 1014.2
20260831171443 26 324 4.8 12.9 0.00 0.00 0.00 52 1014.5
20260831170940 26 292 3.2 9.7 0.00 0.00 0.00 56 1014.5
20260831170436 25 269 8.0 11.3 0.00 0.00 0.00 53 1014.2
20260831165932 26 314 6.4 9.7 0.00 0.00 0.00 55 1014.3
20260831165428 25 346 4.8 12.9 0.00 0.00 0.00 56 1014.2
20260831164924 25 296 6.4 9.7 0.00 0.00 0.00 57 1014.4
20260831164420 25 16 6.4 9.7 0.00 0.00 0.00 62 1014.3
20260831163915 25 349 9.7 14.5 0.00 0.00 0.00 60 1014.2
20260831163411 25 290 4.8 12.9 0.00 0.00 0.00 62 1014.2
20260831162909 25 334 9.7 12.9 0.00 0.00 0.00 61 1014.2
20260831162405 25 283 8.0 11.3 0.00 0.00 0.00 64 1014.3
20260831161903 25 354 6.4 9.7 0.00 0.00 0.00 67 1014.2
20260831161400 25 289 4.8 11.3 0.00 0.00 0.00 65 1014.5
20260831160855 24 352 4.8 11.3 0.00 0.00 0.00 68 1014.5
20260831160349 25 48 4.8 9.7 0.00 0.00 0.00 66 1014.5
20260831155844 23 303 6.4 9.7 0.00 0.00 0.00 70 1014.4
20260831155338 23 293 8.0 16.1 0.00 0.00 0.00 70 1014.5
20260831154834 23 263 6.4 9.7 0.00 0.00 0.00 74 1014.5
20260831154331 23 240 1.6 4.8 0.00 0.00 0.00 75 1014.5
20260831153829 22 265 6.4 6.4 0.00 0.00 0.00 77 1014.4
20260831153325 22 309 4.8 9.7 0.00 0.00 0.00 80 1014.3
20260831152821 22 280 8.0 12.9 0.00 0.00 0.00 80 1014.1
20260831152317 22 287 3.2 11.3 0.00 0.00 0.00 82 1014.2
20260831151812 22 317 6.4 6.4 0.00 0.00 0.00 81 1014.1
20260831151311 21 330 3.2 4.8 0.00 0.00 0.00 84 1014.2
20260831150806 21 338 4.8 9.7 0.00 0.00 0.00 84 1013.9
20260831150301 21 268 4.8 9.7 0.00 0.00 0.00 85 1013.7
20260831145800 21 342 4.8 6.4 0.00 0.00 0.00 84 1013.7
20260831145257 21 305 9.7 12.9 0.00 0.00 0.00 84 1013.9
20260831144752 21 334 3.2 12.9 0.00 0.00 0.00 86 1013.7
20260831144249 21 329 4.8 6.4 0.00 0.00 0.00 86 1013.7
20260831143748 21 228 3.2 9.7 0.00 0.00 0.00 89 1013.7
20260831143243 20 263 8.0 11.3 0.00 0.00 0.00 89 1013.5
20260831142739 20 317 4.8 6.4 0.00 0.00 0.00 90 1013.6
20260831142234 20 351 8.0 12.9 0.00 0.00 0.00 91 1013.9
20260831141733 20 258 6.4 11.3 0.00 0.00 0.00 90 1013.7
20260831141228 20 294 9.7 14.5 0.00 0.00 0.00 90 1013.5
20260831140728 20 55 3.2 9.7 0.00 0.00 0.00 90 1013.4
20260831140222 20 340 6.4 9.7 0.00 0.00 0.00 90 1013.4
20260831135720 20 275 3.2 9.7 0.00 0.00 0.00 92 1013.2
20260831135216 20 44 3.2 11.3 0.00 0.00 0.00 93 1013.1
20260831134712 20 50 3.2 11.3 0.00 0.00 0.00 93 1013.2
20260831134208 20 268 4.8 9.7 0.00 0.00 0.00 93 1013.2
20260831133706 19 278 9.7 14.5 0.00 0.00 0.00 94 1013.1
20260831133201 19 287 9.7 16.1 0.00 0.00 0.00 95 1013.1
20260831132657 19 338 6.4 16.1 0.00 0.00 0.00 96 1013.0
20260831132156 19 9 8.0 12.9 0.00 0.00 0.00 95 1013.1
20260831131651 19 287 4.8 12.9 0.00 0.00 0.00 95 1013.0
20260831131148 20 14 8.0 11.3 0.00 0.00 0.00 95 1013.0
20260831130642 19 332 4.8 14.5 0.00 0.00 0.00 96 1012.6
20260831130138 19 348 3.2 12.9 0.00 0.00 0.00 97 1012.9
20260831125636 19 297 3.2 6.4 0.00 0.00 0.00 97 1012.7
20260831125132 19 298 6.4 20.9 0.00 0.00 0.00 96 1012.5
20260831124628 20 281 9.7 12.9 0.00 0.00 0.00 96 1012.2
20260831124124 20 286 4.8 6.4 0.00 0.00 0.00 97 1012.1
20260831123623 20 315 6.4 6.4 0.00 0.00 0.00 99 1012.0
20260831123122 20 290 6.4 6.4 0.00 0.00 0.00 99 1011.5
20260831122622 20 282 3.2 9.7 0.00 0.00 0.00 99 1011.6
20260831122118 20 263 3.2 4.8 0.00 0.00 0.00 99 1011.7
20260831121617 20 297 4.8 9.7 0.00 0.00 0.00 99 1011.7
20260831121114 20 307 4.8 11.3 0.00 0.00 0.00 99 1011.6
20260831120609 20 242 4.8 6.4 0.00 0.00 0.00 99 1011.6
20260831120104 20 281 6.4 12.9 0.00 0.00 0.00 99 1011.6
20260831115600 20 266 3.2 9.7 0.00 0.00 0.00 99 1011.3
20260831115055 20 244 4.8 9.7 0.00 0.00 0.00 99 1011.2
20260831114554 20 287 3.2 11.3 0.00 0.00 0.00 99 1010.9
20260831114049 20 263 3.2 9.7 0.00 0.00 0.00 99 1010.8
20260831113548 20 229 6.4 12.9 0.00 0.00 0.00 99 1010.8
20260831113045 20 329 4.8 11.3 0.00 0.00 0.00 99 1010.7
20260831112543 21 242 4.8 12.9 0.00 0.00 0.00 99 1010.5
20260831112039 21 293 9.7 11.3 0.00 0.00 0.00 99 1010.5
20260831111535 21 295 4.8 14.5 0.00 0.00 0.00 99 1010.5
20260831111030 21 255 6.4 11.3 0.00 0.00 0.00 99 1010.4
20260831110525 21 296 4.8 14.5 0.00 0.00 0.00 99 1010.3
20260831110020 21 253 8.0 14.5 0.00 0.00 0.00 99 1010.3
20260831105514 21 281 12.9 17.7 0.00 0.00 0.00 99 1010.2
20260831105009 21 262 12.9 25.7 0.00 0.00 0.00 99 1010.2
20260831104505 21 295 9.7 14.5 0.00 0.00 0.00 99 1010.0
20260831104001 22 247 6.4 11.3 0.00 0.00 0.00 99 1010.0
20260831103500 22 263 4.8 9.7 0.00 0.00 0.00 99 1009.9
20260831102956 22 273 6.4 9.7 0.00 0.00 0.00 99 1009.9
20260831102451 22 286 6.4 11.3 0.00 0.00 0.00 99 1009.7
20260831101946 22 272 8.0 11.3 0.00 0.00 0.00 99 1010.0
20260831101441 22 286 6.4 9.7 0.00 0.00 0.00 99 1009.7
20260831100937 22 247 4.8 6.4 0.00 0.00 0.00 99 1009.6
20260831100433 22 261 6.4 11.3 0.00 0.00 0.00 99 1009.6
20260831095928 22 254 6.4 6.4 0.00 0.00 0.00 99 1009.7
20260831095427 22 270 4.8 4.8 0.00 0.00 0.00 99 1009.6
20260831094922 22 284 3.2 4.8 0.00 0.00 0.00 99 1009.6
20260831094418 22 244 3.2 6.4 0.00 0.00 0.00 99 1009.6
20260831093914 22 253 3.2 9.7 0.00 0.00 0.00 99 1009.6
20260831093409 22 280 6.4 6.4 0.00 0.00 0.00 99 1009.5
20260831092906 22 255 4.8 9.7 0.00 0.00 0.00 99 1009.5
20260831092401 22 257 3.2 6.4 0.00 0.00 0.00 99 1009.4
20260831091855 22 264 3.2 4.8 0.00 0.00 0.00 99 1009.6
20260831091350 22 242 3.2 6.4 0.00 0.00 0.00 99 1009.1
20260831090845 23 259 4.8 6.4 0.00 0.00 0.00 99 1009.4
20260831090336 23 288 3.2 9.7 0.00 0.00 0.00 99 1009.2
20260831085832 23 274 3.2 11.3 0.00 0.00 0.00 99 1009.2
20260831085326 23 295 6.4 12.9 0.00 0.00 0.00 99 1009.1
20260831084821 23 287 11.3 16.1 0.00 0.00 0.00 99 1009.1
20260831084317 22 220 1.6 6.4 0.00 0.00 0.00 99 1009.1
20260831083813 22 232 1.6 6.4 0.00 0.00 0.00 99 1009.1
20260831083308 22 265 4.8 4.8 0.00 0.00 0.00 99 1009.2
20260831082807 22 281 3.2 3.2 0.00 0.00 0.00 99 1008.9
20260831082306 22 263 1.6 1.6 0.00 0.00 0.00 99 1009.1
20260831081758 22 260 0.0 0.0 0.00 0.00 0.00 99 1008.8
20260831081248 22 246 3.2 4.8 0.00 0.00 0.00 99 1009.0
20260831080743 22 216 6.4 6.4 0.00 0.00 0.00 99 1009.0
20260831080237 22 240 1.6 3.2 0.00 0.00 0.00 99 1009.0
20260831075733 22 238 1.6 3.2 0.00 0.00 0.00 99 1009.2
20260831075229 21 237 0.0 4.8 0.00 0.00 0.00 99 1009.1
20260831074728 21 245 0.0 0.0 0.00 0.00 0.00 99 1008.9
20260831074222 21 214 0.0 1.6 0.00 0.00 0.00 99 1008.8
20260831073718 21 218 0.0 1.6 0.00 0.00 0.00 99 1008.7
20260831073216 21 238 0.0 1.6 0.00 0.00 0.00 99 1008.7
20260831072712 21 162 0.0 3.2 0.00 0.00 0.00 99 1008.4
20260831072208 21 196 0.0 0.0 0.00 0.00 0.00 99 1008.4
20260831071708 21 219 0.0 0.0 0.00 0.00 0.00 99 1008.5
20260831071202 21 223 0.0 0.0 0.00 0.00 0.00 99 1008.5
20260831070656 20 215 0.0 0.0 0.00 0.00 0.00 99 1008.3
20260831070150 20 216 0.0 0.0 0.00 0.00 0.00 99 1008.4
20260831065650 20 192 0.0 0.0 0.00 0.00 0.00 99 1008.4
20260831065148 21 192 0.0 0.0 0.00 0.00 0.00 99 1008.5
20260831064643 21 141 0.0 0.0 0.00 0.00 0.00 99 1008.3
20260831064134 21 213 0.0 0.0 0.00 0.00 0.00 99 1008.4
20260831063630 21 115 0.0 0.0 0.00 0.00 0.00 99 1008.3
20260831063124 21 150 0.0 0.0 0.00 0.00 0.00 99 1008.2
20260831062618 21 210 0.0 0.0 0.00 0.00 0.00 99 1008.4
20260831062112 21 103 0.0 1.6 0.00 0.00 0.00 99 1008.3
20260831061610 21 137 0.0 0.0 0.00 0.00 0.00 99 1008.5
20260831061106 21 125 1.6 3.2 0.00 0.00 0.00 99 1008.3
20260831060602 21 84 0.0 1.6 0.00 0.00 0.00 99 1008.3
20260831060056 21 87 0.0 0.0 0.00 0.00 0.00 99 1008.3
20260831055551 22 109 1.6 1.6 0.00 0.00 0.00 99 1008.3
20260831055047 22 137 0.0 1.6 0.00 0.00 0.00 99 1008.4